Time,TemperatureF,DewpointF,PressureIn,WindDirection,WindDirectionDegrees,WindSpeedMPH,WindSpeedGustMPH,Humidity,HourlyPrecipIn,Conditions,Clouds,dailyrainin,SoftwareType,DateUTC
2013-05-30 00:00:00,30.0,-99.9,-100.00,North,-999,-999.0,-999.0,-999,-99.99,,,0.04,,2013-05-30 06:00:00,
2013-05-30 00:42:00,30.0,-99.9,-100.00,North,-999,-999.0,-999.0,-999,-99.99,,,0.04,,2013-05-30 06:42:00,
2013-05-30 00:52:00,30.0,-99.9,-100.00,North,-999,-999.0,-999.0,-999,-99.99,,,0.04,,2013-05-30 06:52:00,
2013-05-30 01:00:00,29.0,-99.9,-100.00,North,-999,-999.0,-999.0,-999,-99.99,,,0.04,,2013-05-30 07:00:00,
2013-05-30 01:52:00,29.0,-99.9,-100.00,North,-999,-999.0,-999.0,-999,-99.99,,,0.04,,2013-05-30 07:52:00,
2013-05-30 02:00:00,30.0,-99.9,-100.00,North,-999,-999.0,-999.0,-999,-99.99,,,0.04,,2013-05-30 08:00:00,
2013-05-30 02:53:00,30.0,-99.9,-100.00,North,-999,-999.0,-999.0,-999,-99.99,,,0.04,,2013-05-30 08:53:00,
2013-05-30 03:00:00,29.0,-99.9,-100.00,North,-999,-999.0,-999.0,-999,-99.99,,,0.03,,2013-05-30 09:00:00,
2013-05-30 03:53:00,29.0,-99.9,-100.00,North,-999,-999.0,-999.0,-999,-99.99,,,0.03,,2013-05-30 09:53:00,
2013-05-30 04:00:00,29.0,-99.9,-100.00,North,-999,-999.0,-999.0,-999,-99.99,,,0.03,,2013-05-30 10:00:00,
2013-05-30 04:53:00,29.0,-99.9,-100.00,North,-999,-999.0,-999.0,-999,-99.99,,,0.03,,2013-05-30 10:53:00,
2013-05-30 05:00:00,29.0,-99.9,-100.00,North,-999,-999.0,-999.0,-999,-99.99,,,0.03,,2013-05-30 11:00:00,
2013-05-30 05:52:00,29.0,-99.9,-100.00,North,-999,-999.0,-999.0,-999,-99.99,,,0.03,,2013-05-30 11:52:00,
2013-05-30 06:00:00,29.0,-99.9,-100.00,North,-999,-999.0,-999.0,-999,-99.99,,,0.02,,2013-05-30 12:00:00,
2013-05-30 06:52:00,29.0,-99.9,-100.00,North,-999,-999.0,-999.0,-999,-99.99,,,0.02,,2013-05-30 12:52:00,
2013-05-30 07:00:00,29.0,-99.9,-100.00,North,-999,-999.0,-999.0,-999,-99.99,,,0.02,,2013-05-30 13:00:00,
2013-05-30 07:52:00,29.0,-99.9,-100.00,North,-999,-999.0,-999.0,-999,-99.99,,,0.02,,2013-05-30 13:52:00,
2013-05-30 08:00:00,30.0,-99.9,-100.00,North,-999,-999.0,-999.0,-999,-99.99,,,0.02,,2013-05-30 14:00:00,
2013-05-30 08:52:00,30.0,-99.9,-100.00,North,-999,-999.0,-999.0,-999,-99.99,,,0.02,,2013-05-30 14:52:00,
2013-05-30 09:00:00,32.0,-99.9,-100.00,North,-999,-999.0,-999.0,-999,-99.99,,,0.02,,2013-05-30 15:00:00,
2013-05-30 09:53:00,32.0,-99.9,-100.00,North,-999,-999.0,-999.0,-999,-99.99,,,0.02,,2013-05-30 15:53:00,
2013-05-30 10:00:00,35.0,-99.9,-100.00,North,-999,-999.0,-999.0,-999,-99.99,,,0.02,,2013-05-30 16:00:00,
2013-05-30 10:53:00,35.0,-99.9,-100.00,North,-999,-999.0,-999.0,-999,-99.99,,,0.02,,2013-05-30 16:53:00,
2013-05-30 11:00:00,37.0,-99.9,-100.00,North,-999,-999.0,-999.0,-999,-99.99,,,0.02,,2013-05-30 17:00:00,
2013-05-30 11:53:00,37.0,-99.9,-100.00,North,-999,-999.0,-999.0,-999,-99.99,,,0.02,,2013-05-30 17:53:00,
2013-05-30 12:00:00,34.0,-99.9,-100.00,North,-999,-999.0,-999.0,-999,-99.99,,,0.02,,2013-05-30 18:00:00,
2013-05-30 12:52:00,34.0,-99.9,-100.00,North,-999,-999.0,-999.0,-999,-99.99,,,0.02,,2013-05-30 18:52:00,
2013-05-30 13:00:00,38.0,-99.9,-100.00,North,-999,-999.0,-999.0,-999,-99.99,,,0.02,,2013-05-30 19:00:00,
2013-05-30 13:53:00,38.0,-99.9,-100.00,North,-999,-999.0,-999.0,-999,-99.99,,,0.02,,2013-05-30 19:53:00,
2013-05-30 14:00:00,37.0,-99.9,-100.00,North,-999,-999.0,-999.0,-999,-99.99,,,0.02,,2013-05-30 20:00:00,
2013-05-30 14:42:00,37.0,-99.9,-100.00,North,-999,-999.0,-999.0,-999,-99.99,,,0.02,,2013-05-30 20:42:00,
2013-05-30 14:52:00,37.0,-99.9,-100.00,North,-999,-999.0,-999.0,-999,-99.99,,,0.02,,2013-05-30 20:52:00,
2013-05-30 15:00:00,39.0,-99.9,-100.00,North,-999,-999.0,-999.0,-999,-99.99,,,0.02,,2013-05-30 21:00:00,
2013-05-30 15:54:00,39.0,-99.9,-100.00,North,-999,-999.0,-999.0,-999,-99.99,,,0.02,,2013-05-30 21:54:00,
2013-05-30 16:00:00,40.0,-99.9,-100.00,North,-999,-999.0,-999.0,-999,-99.99,,,0.01,,2013-05-30 22:00:00,
2013-05-30 16:52:00,40.0,-99.9,-100.00,North,-999,-999.0,-999.0,-999,-99.99,,,0.01,,2013-05-30 22:52:00,
2013-05-30 17:00:00,35.0,-99.9,-100.00,North,-999,-999.0,-999.0,-999,-99.99,,,0.02,,2013-05-30 23:00:00,
2013-05-30 17:52:00,35.0,-99.9,-100.00,North,-999,-999.0,-999.0,-999,-99.99,,,0.02,,2013-05-30 23:52:00,
2013-05-30 18:00:00,37.0,-99.9,-100.00,North,-999,-999.0,-999.0,-999,-99.99,,,0.02,,2013-05-31 00:00:00,
2013-05-30 18:52:00,37.0,-99.9,-100.00,North,-999,-999.0,-999.0,-999,-99.99,,,0.02,,2013-05-31 00:52:00,
2013-05-30 19:00:00,38.0,-99.9,-100.00,North,-999,-999.0,-999.0,-999,-99.99,,,0.00,,2013-05-31 01:00:00,
2013-05-30 19:52:00,38.0,-99.9,-100.00,North,-999,-999.0,-999.0,-999,-99.99,,,0.00,,2013-05-31 01:52:00,
2013-05-30 20:00:00,36.0,-99.9,-100.00,North,-999,-999.0,-999.0,-999,-99.99,,,0.00,,2013-05-31 02:00:00,
2013-05-30 20:52:00,36.0,-99.9,-100.00,North,-999,-999.0,-999.0,-999,-99.99,,,0.00,,2013-05-31 02:52:00,
2013-05-30 21:00:00,35.0,-99.9,-100.00,North,-999,-999.0,-999.0,-999,-99.99,,,0.01,,2013-05-31 03:00:00,
2013-05-30 21:54:00,35.0,-99.9,-100.00,North,-999,-999.0,-999.0,-999,-99.99,,,0.01,,2013-05-31 03:54:00,
2013-05-30 22:00:00,33.0,-99.9,-100.00,North,-999,-999.0,-999.0,-999,-99.99,,,0.01,,2013-05-31 04:00:00,
2013-05-30 22:53:00,33.0,-99.9,-100.00,North,-999,-999.0,-999.0,-999,-99.99,,,0.01,,2013-05-31 04:53:00,
2013-05-30 23:00:00,31.0,-99.9,-100.00,North,-999,-999.0,-999.0,-999,-99.99,,,0.01,,2013-05-31 05:00:00,
2013-05-30 23:42:00,31.0,-99.9,-100.00,North,-999,-999.0,-999.0,-999,-99.99,,,0.01,,2013-05-31 05:42:00,
2013-05-30 23:52:00,31.0,-99.9,-100.00,North,-999,-999.0,-999.0,-999,-99.99,,,0.01,,2013-05-31 05:52:00,